Weather History for Chapel Hill, NC

Change the Weather History Date:

Thursday, April 10, 2014

  Actual Average Record
Temperature  
Mean Temperature 56 °F -  
Max Temperature 73 °F 68 °F 88 °F (2001)
Min Temperature 39 °F 40 °F 23 °F (1985)
Degree Days  
Heating Degree Days 9    
Growing Degree Days 6 (Base 50)    
Moisture  
Dew Point 37 °F    
Average Humidity 50    
Maximum Humidity 89    
Minimum Humidity 22    
Precipitation  
Precipitation 0.00 in - - ()
Sea Level Pressure  
Sea Level Pressure 30.18 in    
Wind  
Wind Speed 2 mph (WSW)    
Max Wind Speed 8 mph    
Max Gust Speed -    
Visibility 9 miles    
Events      
Averages and records for this station are not official NWS values.
T = Trace of Precipitation, MM = Missing Value Source: NWS Daily Summary

Daily Weather History Graph

Daily Weather History Graph

Search for Another Location

Airport:

Trip Planner

Search our weather history database for the weather conditions in past years. The results will help you decide how hot, cold, wet, or windy it might be!

Date:

Astronomy

Apr. 10, 2014 Rise Set
Actual Time 6:50 AM EDT 7:45 PM EDT
Civil Twilight 6:23 AM EDT 8:11 PM EDT
Nautical Twilight 5:52 AM EDT 8:42 PM EDT
Astronomical Twilight 5:21 AM EDT 9:14 PM EDT
Moon 3:35 PM EDT (4/10) 4:03 AM EDT (4/10)
Length of Visible Light 13h 47m
Length of Day
12h 55m
Waxing Gibbous, 79% of the Moon is Illuminated
Apr 10
Waxing Gibbous
Apr 15
Full
Apr 22
Last Quarter
Apr 29
New
May 6
First Quarter

Hourly Weather History & Observations

Time (EDT) Temp. Dew Point Humidity Pressure Visibility Wind Dir Wind Speed Gust Speed Precip Events Conditions
12:56 AM 46.0 °F 39.0 °F 76% 30.12 in 10.0 mi Calm Calm - N/A   Clear
1:56 AM 45.0 °F 39.0 °F 80% 30.14 in 10.0 mi Calm Calm - N/A   Clear
2:56 AM 44.1 °F 37.9 °F 79% 30.13 in 10.0 mi Calm Calm - N/A   Clear
3:56 AM 42.1 °F 39.0 °F 89% 30.15 in 10.0 mi Calm Calm - N/A   Clear
4:56 AM 41.0 °F 37.9 °F 89% 30.17 in 10.0 mi Calm Calm - N/A   Clear
5:56 AM 39.9 °F 37.0 °F 89% 30.19 in 10.0 mi Calm Calm - N/A   Clear
6:56 AM 39.0 °F 36.0 °F 89% 30.22 in 9.0 mi Calm Calm - N/A   Clear
8:56 AM 54.0 °F 42.1 °F 64% 30.26 in 10.0 mi Calm Calm - N/A   Clear
9:56 AM 61.0 °F 37.9 °F 42% 30.27 in 10.0 mi Calm Calm - N/A   Clear
10:56 AM 64.9 °F 35.1 °F 33% 30.27 in 10.0 mi Variable 3.5 mph - N/A   Clear
11:56 AM 66.9 °F 33.1 °F 28% 30.25 in 10.0 mi Calm Calm - N/A   Clear
12:56 PM 69.1 °F 33.1 °F 26% 30.22 in 10.0 mi West 8.1 mph - N/A   Clear
1:56 PM 71.1 °F 32.0 °F 24% 30.20 in 8.0 mi SW 6.9 mph - N/A   Clear
2:56 PM 73.0 °F 35.1 °F 25% 30.18 in 8.0 mi Variable 6.9 mph - N/A   Clear
3:56 PM 73.9 °F 34.0 °F 23% 30.15 in 4.0 mi Variable 6.9 mph - N/A   Haze
4:56 PM 73.9 °F 33.1 °F 22% 30.14 in 7.0 mi Variable 6.9 mph - N/A   Clear
5:56 PM 73.0 °F 34.0 °F 24% 30.14 in 8.0 mi Variable 6.9 mph - N/A   Clear
6:56 PM 72.0 °F 36.0 °F 27% 30.14 in 8.0 mi Variable 4.6 mph - N/A   Clear
7:56 PM 64.9 °F 39.0 °F 39% 30.15 in 10.0 mi Calm Calm - N/A   Clear
8:56 PM 60.1 °F 39.0 °F 46% 30.16 in 10.0 mi Calm Calm - N/A   Clear
9:56 PM 57.9 °F 39.0 °F 49% 30.17 in 10.0 mi Calm Calm - N/A   Clear
10:56 PM 61.0 °F 37.0 °F 41% 30.17 in 10.0 mi Variable 3.5 mph - N/A   Clear
11:56 PM 59.0 °F 37.0 °F 44% 30.18 in 10.0 mi Calm Calm - N/A   Clear